Regional Weather Roundup
Issued by NWS

Home | Current Version | Previous Version | Text Only | Print | Product List | Glossary Off
Versions: 1 2 3 4 5 6 7 8 9 10 11 12 13 14 15 16 17 18 19 20 21 22 23 24 25 26 27 28 29 30 31 32 33 34 35 36 37 38 39 40 41 42 43 44 45 46 47 48 49 50

000
ASUS43 KLOT 282010
RWRIL

ILLINOIS REGIONAL WEATHER ROUNDUP
NATIONAL WEATHER SERVICE CHICAGO/ROMEOVILLE IL
200 PM CST FRI NOV 28 2014

NOTE: "FAIR" INDICATES FEW OR NO CLOUDS BELOW 12,000 FEET WITH NO
SIGNIFICANT WEATHER AND/OR OBSTRUCTIONS TO VISIBILITY.

* THESE STATIONS ARE NOT UNDER NWS QUALITY CONTROL. THEY ALSO MAY NOT
  REPORT WEATHER SUCH AS PRECIPITATION OR FOG.

ILZ001-002-007-009-015-016-024-282100-
NORTHWEST ILLINOIS

CITY           SKY/WX    TMP DP  RH WIND       PRES   REMARKS
MOLINE         CLOUDY    34  25  69 S9        29.92F WCI  27
STERLING*      CLOUDY    34  27  75 S5        29.96F WCI  30
SAVANNA*       CLOUDY    32  25  77 SE5       29.96F WCI  27
$$

ILZ003-004-008-010-011-017-018-282100-
NORTH CENTRAL ILLINOIS

CITY           SKY/WX    TMP DP  RH WIND       PRES   REMARKS
ROCKFORD       CLOUDY    29  22  75 SE10      30.00F WCI  20
FREEPORT*      CLOUDY    28  22  80 SE8       29.97F WCI  19
ROCHELLE*      CLOUDY    30  26  85 SE15G21   29.98F WCI  19
DE KALB*       CLOUDY    28  23  82 SE14      29.99F WCI  17
PERU*          CLOUDY    35  29  79 S17       29.97F WCI  25
$$

ILZ005-006-012>014-019>023-282100-
NORTHEAST ILLINOIS

CITY           SKY/WX    TMP DP  RH WIND       PRES   REMARKS
CHICAGO-OHARE  CLOUDY    30  20  66 S18       30.02F WCI  18
CHICAGO-MIDWAY CLOUDY    33  19  56 S15G25    30.04F WCI  23
AURORA         CLOUDY    31  23  72 SE17      30.00F WCI  19
LANSING*       CLOUDY    31  19  62 S13       30.06F WCI  21
JOLIET*        CLOUDY    31  24  76 S13G20    30.03F WCI  21
WAUKEGAN       CLOUDY    29  17  61 S9        30.00F WCI  20
DUPAGE AIRPORT PTSUNNY   29  21  72 S16G23    29.99F WCI  17
KANKAKEE*      CLOUDY    32  25  76 SE14G20   30.07F WCI  22
WHEELING       CLOUDY    30  19  63 S16       30.03F WCI  19
MORRIS*        CLOUDY    32  28  85 SE14      30.00F WCI  22
ROMEOVILLE*    CLOUDY    31  24  75 S18       30.01F WCI  19
NORTHERLY ISL    N/A     31  19  61 S17         N/A  WCI  20
$$

LMZ740>746-282100-
SOUTHERN LAKE MICHIGAN

STATION/POSITION SKY/WX   TEMP    WIND        PRES    VSBY  WAVE
                          AIR SEA DIR/SP/G                  HT/PER
                          (F)     (DEG/KT/KT) (MB)    (MI)  (FT/S)
SOUTHERN BUOY              31 42  150/ 21/ 27 1018.1F         5/ 5
WAUKEGAN HARBOR            31     170/ 18/ 21   N/A
HARRISON CRIB              30     170/ 23/ 29   N/A
BURNHAM HARBOR             31     160/ 14/ 18   N/A
CALUMET HARBOR             31     150/  8/ 14 1016.5F
MICHIGAN CITY              29     130/ 17/ 22   N/A
$$

ILZ025>027-034>036-040-047-049-050-058-095>099-282100-
WEST-CENTRAL ILLINOIS

CITY           SKY/WX    TMP DP  RH WIND       PRES   REMARKS
QUINCY         MOSUNNY   47  31  53 S12       29.90F
GALESBURG*     MOSUNNY   35  29  79 SE12      29.92F WCI  27
MACOMB*        MOSUNNY   37  31  81 SE14      29.96F WCI  28
JACKSONVILLE*  SUNNY     43  33  69 S14G21    29.96F
PITTSFIELD*    SUNNY     47  35  63 S10       29.94F
$$

ILZ028>032-037-038-041>044-048-051>054-059>061-282100-
CENTRAL ILLINOIS

CITY           SKY/WX    TMP DP  RH WIND       PRES   REMARKS
PONTIAC        PTSUNNY   37  31  78 S18G25    30.01F WCI  27
BLOOMINGTON    PTSUNNY   38  31  76 S23       30.00F WCI  27
DECATUR        MOSUNNY   38  30  73 S15       30.03F WCI  29
PEORIA         MOSUNNY   38  29  70 S17       29.97F WCI  28
LACON*         CLOUDY    37  28  71 S14G20    29.96F WCI  28
LINCOLN*       MOSUNNY   37  31  77 S17       30.01F WCI  28
SPRINGFIELD    SUNNY     39  30  70 S21G33    29.99F WCI  29
TAYLORVILLE    SUNNY     36  30  80 S21G31    30.01F WCI  24
$$

ILZ033-039-045-046-055>057-062-063-282100-
EAST-CENTRAL ILLINOIS

CITY           SKY/WX    TMP DP  RH WIND       PRES   REMARKS
CHAMPAIGN      MOSUNNY   38  30  73 S20G28    30.05F WCI  28
DANVILLE*      MOSUNNY   35  28  75 S17       30.05F WCI  24
RANTOUL*       MOSUNNY   39  31  72 S24       30.05F WCI  28
MATTOON        MOSUNNY   37  28  70 S16G29    30.04F WCI  28
PARIS*         MOSUNNY   37  31  78 S17G23    30.09F WCI  28
$$

ILZ079-100>102-282100-
SOUTHWEST ILLINOIS

CITY           SKY/WX    TMP DP  RH WIND       PRES   REMARKS
ALTON          SUNNY     46  32  57 S17       30.00F
BELLEVILLE     SUNNY     47  35  63 S16       30.01F
CAHOKIA*       SUNNY     49  34  56 S10G20    30.00F
SPARTA*        SUNNY     44  32  62 S18G25    30.06F
$$

ILZ064>066-069>071-074>076-080>082-084>086-088>090-092>094-282100-
SOUTH-CENTRAL ILLINOIS

CITY           SKY/WX    TMP DP  RH WIND       PRES   REMARKS
CARBONDALE     SUNNY     48  29  47 S22G28    30.09F
CAIRO*         SUNNY     50  30  46 S15       30.15F
EFFINGHAM*     SUNNY     38  28  66 S15       30.08F WCI  30
MARION         MOSUNNY   46  32  57 S18G24    30.12F
MT. VERNON     SUNNY     45  34  65 S17G23    30.09F
CENTRALIA*     SUNNY     43  31  63 S17G24    30.06F
SALEM*           N/A     45  32  61 S17G25    30.07F
METROPOLIS*    SUNNY     47  30  50 S10         N/A
$$

ILZ067-068-072-073-078-083-087-091-282100-
SOUTHEAST ILLINOIS

CITY           SKY/WX    TMP DP  RH WIND       PRES   REMARKS
LAWRENCEVILLE  SUNNY     41  30  65 S16G25    30.16F
FLORA*         SUNNY     40  33  75 S17       30.10F
FAIRFIELD*     SUNNY     43  33  66 S17       30.10F
HARRISBURG*    SUNNY     46  30  54 S16       30.14F
ROBINSON*      MOSUNNY   40  31  68 S15       30.14F
CARMI*         SUNNY     45  36  71 S15       30.14F
$$

ABBREVIATIONS USED IN REMARKS
   TC - TEMPERATURE IN CELSIUS
  WCI - WIND CHILL INDEX
   HX - HEAT INDEX
  VSB - VISIBILITY
$$




USA.gov is the U.S. government's official web portal to all federal, state and local government web resources and services.